Wind_Speed
42 42 40 37 37 32 28 25 27 24 18 22 22 20 25 22 18 15 10 14 15 13 14 12 10 9 7 6 7 8 7 5 1 1 1 2 3 5 6 5 6 8 10 10 12 14 15 18 19
47 47 43 43 41 34 24 24 14 19 27 20 13 13 34 28 24 20 6 10 13 14 14 13 11 9 7 7 7 8 6 4 2 2 2 3 4 4 3 4 5 8 10 12 13 15 17 19 20
45 51 48 49 44 37 23 24 18 22 24 28 26 18 28 7 5 15 8 9 14 13 13 12 12 10 9 9 8 7 6 5 4 3 3 4 4 3 4 4 6 9 11 13 15 17 18 20 20
46 48 54 54 46 35 26 30 29 27 26 25 19 20 21 11 4 8 8 8 13 11 11 11 12 11 11 11 9 8 7 7 5 4 5 5 5 5 5 5 6 8 11 13 15 18 19 20 20
48 50 52 56 47 37 31 33 32 25 33 25 24 21 12 14 12 8 9 8 9 10 9 11 12 12 12 11 10 10 10 8 6 5 6 6 5 6 6 7 8 9 12 14 16 18 20 21 22
50 50 54 51 49 41 35 33 36 25 23 33 25 4 5 12 16 15 11 9 11 11 11 10 12 12 12 11 10 9 9 8 6 6 7 7 8 8 8 9 10 11 13 15 17 19 21 24 25
52 52 48 49 43 44 38 35 40 28 24 24 18 14 19 16 22 22 22 14 14 14 13 11 11 12 12 10 10 11 12 11 9 9 8 9 9 9 10 11 12 13 15 16 18 19 22 25 26
53 55 51 44 44 40 43 40 34 27 39 31 23 26 17 20 26 29 26 18 16 16 15 13 13 12 12 11 12 13 13 12 11 10 9 9 9 10 11 12 12 14 16 17 17 18 22 26 28
55 57 53 46 40 41 42 46 37 32 34 33 36 38 19 20 26 32 27 23 19 17 15 15 14 12 11 11 12 14 15 15 12 9 9 11 11 12 12 13 13 14 14 15 17 19 24 28 29
60 61 53 49 45 39 42 52 47 41 35 32 32 32 23 14 20 28 27 25 22 20 16 15 16 14 12 10 8 13 14 16 14 13 14 13 13 13 12 13 15 16 17 17 21 23 27 33 31
64 63 54 51 49 45 47 56 58 48 42 43 39 32 31 26 22 18 21 29 25 24 20 18 19 18 16 14 11 12 11 14 14 14 13 12 10 10 12 14 14 15 16 19 21 25 27 30 31
66 62 57 54 52 49 48 55 61 59 48 42 44 33 39 33 35 27 26 24 25 23 20 22 21 20 18 16 15 16 15 13 12 8 7 7 8 11 13 15 17 19 21 23 23 25 28 27 29
66 63 61 59 57 50 50 52 58 65 49 62 42 39 38 41 40 22 26 24 20 22 22 22 20 24 22 21 20 16 14 15 14 9 9 9 12 14 18 19 20 21 23 25 26 27 30 32 34
66 67 64 60 59 56 48 54 56 63 63 59 46 40 43 48 40 44 39 30 30 33 30 30 26 27 27 27 21 18 17 13 12 12 11 13 15 17 21 22 24 26 25 30 31 33 34 35 35
67 68 67 62 58 56 53 58 55 50 61 65 53 49 48 45 48 43 29 34 35 37 35 33 30 29 28 28 22 20 18 16 14 15 16 19 19 21 23 25 28 30 32 35 35 37 38 37 41
71 70 70 63 58 56 58 53 54 47 59 63 50 54 54 53 44 41 36 35 41 37 36 39 36 31 29 28 24 21 18 16 19 21 22 25 28 28 28 31 34 36 37 37 39 41 43 46 45
75 71 68 65 60 56 58 55 60 52 59 61 62 59 53 44 47 48 48 40 35 50 45 39 38 37 34 30 24 24 23 24 23 23 24 29 33 33 35 37 39 40 41 41 44 46 49 50 49
73 68 68 65 61 56 59 55 64 56 59 54 56 59 55 49 43 37 37 39 35 53 51 44 35 35 35 29 28 28 27 26 28 30 31 34 38 39 39 40 43 42 43 47 49 50 55 55 53
72 71 69 65 61 59 60 60 70 62 63 62 57 50 46 44 37 27 34 39 38 42 50 50 41 43 39 33 31 30 34 35 37 39 39 39 40 41 42 43 41 47 49 51 53 54 58 55 50
72 73 70 66 61 60 62 64 75 67 68 64 56 49 44 39 35 30 33 35 39 42 50 48 57 33 17 17 28 34 37 39 41 41 39 41 41 40 39 43 45 47 49 51 51 52 49 44 55
71 74 69 65 57 59 62 64 75 72 71 63 56 48 41 40 35 28 33 33 36 33 30 31 40 14 38 36 31 34 36 36 36 36 38 40 40 38 38 40 44 47 50 49 50 54 52 48 53
71 70 66 60 58 60 67 67 67 76 72 65 54 43 42 37 32 29 30 29 27 29 25 25 16 18 17 19 25 32 35 37 37 36 36 36 39 40 41 43 45 49 50 53 55 52 53 55 54
68 62 61 54 62 62 71 66 61 73 71 58 51 43 40 36 31 29 30 24 23 26 20 18 14 12 14 20 26 31 34 35 34 32 32 32 38 39 41 44 45 48 50 52 55 56 57 57 58
59 56 57 62 65 65 68 64 65 65 52 50 48 44 40 40 33 28 28 25 20 17 23 22 19 20 21 21 23 26 33 35 34 34 35 36 36 40 44 46 48 50 53 55 58 59 60 60 60
64 60 65 68 62 59 61 60 57 53 52 49 48 43 42 38 32 27 25 23 20 19 23 24 25 23 25 27 27 29 33 35 36 37 37 39 42 44 46 47 49 52 54 56 57 58 59 60 60
65 65 68 69 65 61 56 63 56 47 51 50 49 46 38 32 32 28 27 25 23 23 23 21 23 25 22 23 26 29 32 34 37 38 39 42 43 45 47 48 49 52 54 56 58 60 61 63 64
56 67 63 67 59 55 57 56 51 45 46 49 45 35 33 35 34 32 29 25 26 23 18 19 21 17 12 22 26 28 31 35 36 36 36 36 38 42 45 48 50 52 54 57 60 61 60 58 54
54 68 59 62 61 54 51 54 46 43 45 43 43 39 41 39 38 36 31 27 24 21 18 17 18 12 19 23 28 31 32 33 35 36 38 41 43 46 48 48 49 51 53 52 47 44 43 38 40
56 49 59 59 56 56 53 50 42 37 41 40 38 39 41 41 38 35 29 23 22 20 14 14 16 20 24 24 26 27 28 30 33 37 40 43 44 44 42 36 33 32 35 38 39 40 38 41 44
58 54 57 57 55 53 49 41 44 42 42 40 37 38 39 40 38 33 27 25 24 21 17 19 22 21 21 22 23 26 28 31 35 38 37 36 34 30 28 31 33 33 33 33 32 34 37 36 36
Wind_Direction
219 223 222 220 221 219 202 184 200 217 228 229 238 257 220 197 164 166 193 204 207 212 205 201 195 179 181 176 163 160 165 159 163 339 0 344 349 346 0 13 10 4 2 353 348 349 350 351 356
224 225 221 222 221 214 200 191 179 220 227 241 260 262 233 205 149 140 179 208 213 220 213 209 206 194 188 188 176 172 174 180 203 285 303 316 334 342 354 6 351 349 347 345 344 343 344 345 350
229 227 225 222 217 210 193 183 189 221 237 242 243 285 270 191 147 123 169 214 213 214 213 213 211 207 197 201 190 180 188 204 221 264 278 293 314 317 324 343 338 337 340 339 339 339 338 342 346
230 230 228 224 218 205 189 179 194 220 228 231 255 252 215 301 84 116 202 206 208 210 211 210 210 208 207 207 198 188 205 216 231 252 264 280 301 308 308 317 327 329 331 333 336 334 334 339 342
227 229 230 228 220 202 187 184 199 229 239 209 213 205 193 211 241 180 179 186 194 194 207 208 204 207 210 214 213 209 208 216 236 253 265 275 286 290 293 303 315 322 326 330 331 329 332 335 336
227 226 229 227 223 208 191 192 199 210 238 236 241 187 197 202 222 226 221 191 199 195 193 207 209 211 208 214 213 225 229 235 235 245 253 265 277 286 301 307 312 317 322 327 324 327 333 334 333
229 228 228 227 226 214 192 197 197 210 223 227 246 285 231 216 209 221 226 218 197 188 190 200 211 214 215 218 219 220 223 227 229 239 249 263 279 293 299 302 307 314 321 322 323 329 333 330 328
229 229 225 222 221 212 202 193 194 215 215 231 218 230 203 228 206 212 218 220 211 192 188 197 208 218 225 227 233 233 231 227 232 240 248 264 276 287 292 301 310 317 320 320 321 323 326 327 324
226 227 224 220 216 213 202 193 194 211 209 219 227 217 191 204 200 209 212 216 203 196 194 201 210 220 231 234 240 241 245 235 234 239 243 254 269 279 290 302 303 304 305 308 315 312 319 319 318
228 229 223 219 217 210 201 193 200 207 197 203 226 233 215 188 187 210 219 213 202 201 206 214 219 218 228 216 242 244 249 239 239 238 245 250 265 280 293 296 303 308 312 314 322 319 319 316 308
226 227 222 218 217 212 199 198 204 207 202 208 212 231 223 203 188 184 218 223 213 217 226 227 221 219 213 207 220 234 249 253 252 259 266 275 288 313 307 300 301 303 312 308 304 307 312 312 306
225 223 219 214 216 215 202 206 206 212 202 207 215 215 224 203 199 197 214 219 233 226 230 230 230 222 222 228 229 232 237 238 239 257 264 273 280 285 285 285 288 291 291 296 307 306 310 317 316
222 221 220 213 212 213 205 207 209 213 215 213 209 211 221 227 222 209 199 198 235 245 237 231 235 229 228 234 242 234 223 250 239 250 261 277 279 277 280 286 290 290 292 300 302 299 303 308 306
220 218 217 216 211 211 206 203 211 212 213 226 221 224 224 230 231 224 215 223 240 247 244 245 230 233 229 237 243 230 236 243 245 252 264 264 272 280 281 284 288 286 294 294 297 298 302 306 300
218 217 216 212 210 211 204 199 210 199 214 220 227 226 228 233 239 241 233 228 228 235 228 227 224 228 228 236 238 232 235 237 246 263 263 268 275 277 284 287 289 289 288 293 296 297 297 299 296
214 216 214 209 210 206 208 197 199 197 212 217 225 231 239 245 228 230 225 232 227 222 230 229 224 223 227 233 241 231 233 244 252 259 263 265 271 280 283 285 288 288 289 293 294 294 297 298 302
213 214 211 209 206 203 207 196 192 198 212 213 221 226 231 235 243 245 248 248 243 226 215 225 224 222 224 228 234 227 235 244 252 261 269 272 277 277 280 285 290 293 295 296 296 298 296 297 302
210 211 212 209 206 206 205 191 190 197 213 213 220 223 232 242 248 248 257 245 260 236 217 206 219 214 217 223 224 231 235 239 252 261 265 267 268 274 283 286 290 294 294 294 296 298 297 297 298
206 207 209 207 208 205 205 190 192 198 208 218 223 229 235 241 244 246 252 251 259 239 235 210 204 219 204 205 218 237 246 250 257 266 275 280 279 284 285 286 287 290 293 294 293 298 300 292 300
203 205 204 203 205 204 203 191 193 198 209 219 228 229 232 237 242 241 246 252 249 252 263 272 214 208 208 234 239 250 258 262 268 274 276 279 284 285 284 281 286 288 289 293 292 293 296 299 299
201 200 201 201 203 203 204 196 196 196 207 219 226 229 230 231 237 242 247 257 263 268 268 275 245 319 233 229 244 255 263 267 269 273 273 273 276 280 281 281 282 285 286 291 292 296 297 295 292
200 195 199 196 195 198 200 203 194 198 206 216 222 221 228 233 238 244 251 260 268 270 263 262 270 256 247 237 247 258 268 261 264 266 271 275 275 275 278 280 284 287 289 293 293 293 294 294 295
190 193 196 193 193 190 197 204 191 198 206 211 217 219 226 231 230 234 250 254 262 273 272 268 270 268 246 243 246 250 255 266 273 267 269 267 272 277 279 280 280 283 286 288 292 293 293 294 296
181 188 190 183 185 191 196 205 203 197 202 209 215 216 223 231 231 230 244 255 258 264 277 269 251 246 250 253 254 256 257 261 270 275 276 278 275 274 276 280 284 286 288 290 292 295 297 298 300
176 180 175 177 180 188 192 205 207 195 202 209 217 217 220 227 232 235 240 250 251 250 252 258 261 254 249 251 257 262 269 273 273 274 274 276 279 280 283 286 289 290 292 293 294 295 296 296 295
177 179 174 180 180 187 192 200 201 200 203 208 213 215 219 226 229 228 233 241 239 234 245 257 258 254 254 261 265 267 268 269 268 270 276 279 282 287 289 289 290 290 291 292 292 292 293 292 293
174 179 175 179 188 187 195 195 194 197 196 204 212 214 215 219 222 225 230 233 240 246 237 241 254 273 254 263 268 268 265 263 268 276 283 287 290 293 295 295 295 295 293 291 291 293 297 299 299
172 172 174 172 178 179 190 195 186 188 195 200 206 205 208 213 220 223 225 230 239 245 245 239 244 248 253 253 258 266 275 281 287 292 296 296 295 295 294 293 291 291 292 295 299 297 300 304 303
169 162 173 175 175 183 190 194 186 187 193 199 203 203 206 211 219 223 225 231 238 241 245 255 258 257 258 267 272 276 282 288 290 293 296 297 296 295 294 301 300 303 306 305 305 300 302 302 304
163 152 166 171 174 185 195 172 178 183 187 186 200 205 207 213 220 222 224 232 234 241 247 247 248 255 261 267 276 285 288 293 296 297 301 301 305 305 306 300 298 302 306 307 308 306 307 308 315
Height
5863 5865 5868 5873 5877 5880 5886 5891 5890 5893 5895 5895 5894 5898 5901 5900 5896 5905 5909 5911 5913 5916 5917 5918 5920 5922 5923 5924 5926 5927 5928 5929 5931 5932 5932 5932 5932 5932 5932 5933 5932 5931 5929 5928 5927 5926 5924 5921 5919
5856 5858 5863 5865 5870 5877 5886 5888 5892 5889 5888 5888 5890 5893 5896 5891 5891 5897 5907 5910 5912 5915 5917 5918 5920 5922 5923 5924 5926 5927 5928 5930 5931 5932 5933 5933 5933 5933 5932 5932 5932 5931 5930 5928 5927 5925 5923 5921 5918
5848 5851 5856 5856 5863 5874 5884 5888 5887 5881 5883 5882 5888 5889 5894 5895 5894 5896 5906 5910 5912 5914 5916 5918 5920 5921 5923 5925 5926 5927 5929 5930 5931 5932 5933 5933 5933 5933 5933 5932 5931 5931 5930 5928 5927 5925 5923 5920 5918
5840 5843 5846 5847 5859 5874 5882 5884 5881 5877 5878 5880 5885 5885 5893 5896 5896 5900 5907 5908 5909 5912 5914 5916 5919 5921 5922 5924 5925 5927 5929 5930 5931 5932 5933 5933 5932 5932 5932 5932 5930 5930 5929 5928 5926 5924 5922 5920 5918
5831 5834 5836 5841 5854 5869 5876 5880 5877 5873 5872 5874 5876 5878 5885 5891 5895 5899 5905 5906 5908 5910 5912 5915 5917 5919 5921 5923 5925 5927 5928 5930 5932 5932 5933 5933 5932 5932 5931 5931 5930 5929 5928 5927 5926 5924 5922 5920 5917
5822 5826 5829 5836 5849 5863 5871 5874 5872 5872 5870 5866 5868 5868 5878 5883 5889 5897 5902 5904 5906 5909 5911 5913 5916 5918 5921 5923 5925 5927 5928 5930 5931 5931 5932 5932 5932 5932 5931 5930 5930 5928 5927 5926 5924 5923 5920 5919 5916
5814 5817 5824 5833 5843 5854 5866 5867 5869 5868 5869 5864 5865 5867 5880 5882 5889 5894 5899 5904 5905 5907 5909 5912 5915 5917 5920 5922 5924 5925 5927 5928 5929 5930 5930 5931 5931 5931 5930 5929 5928 5927 5926 5925 5923 5921 5919 5917 5914
5805 5809 5817 5826 5836 5848 5857 5862 5864 5860 5860 5858 5864 5871 5878 5882 5886 5891 5897 5902 5904 5906 5908 5911 5914 5916 5919 5921 5923 5925 5925 5926 5927 5928 5928 5929 5929 5929 5929 5928 5927 5926 5924 5922 5920 5918 5916 5914 5912
5793 5798 5810 5821 5831 5841 5849 5855 5859 5850 5849 5854 5857 5867 5872 5879 5884 5888 5894 5899 5902 5904 5907 5909 5912 5915 5918 5920 5921 5923 5924 5925 5925 5926 5926 5926 5926 5927 5927 5926 5925 5923 5921 5919 5918 5915 5913 5911 5909
5781 5791 5804 5815 5821 5832 5838 5846 5847 5836 5841 5847 5852 5858 5869 5877 5881 5886 5891 5896 5900 5903 5906 5908 5910 5913 5916 5917 5920 5921 5921 5923 5923 5923 5924 5924 5924 5924 5924 5923 5922 5921 5920 5918 5916 5914 5910 5907 5904
5770 5781 5796 5805 5811 5821 5829 5835 5832 5827 5836 5841 5847 5856 5865 5875 5879 5883 5888 5896 5900 5903 5905 5906 5908 5910 5912 5914 5916 5918 5919 5920 5921 5922 5922 5922 5922 5922 5921 5920 5918 5918 5916 5914 5911 5909 5906 5902 5899
5758 5772 5783 5793 5800 5809 5821 5823 5825 5825 5833 5834 5840 5848 5856 5867 5873 5880 5887 5894 5899 5901 5903 5905 5906 5908 5910 5911 5912 5914 5915 5917 5918 5919 5919 5919 5919 5917 5917 5916 5915 5914 5912 5909 5907 5905 5902 5899 5895
5747 5759 5769 5780 5788 5800 5808 5813 5817 5823 5828 5830 5836 5841 5849 5859 5871 5877 5881 5886 5893 5897 5900 5903 5904 5906 5907 5908 5909 5910 5911 5912 5914 5915 5915 5915 5915 5914 5912 5912 5910 5909 5907 5906 5903 5900 5898 5895 5890
5736 5744 5755 5770 5780 5786 5800 5805 5808 5821 5820 5825 5835 5839 5845 5851 5858 5869 5877 5883 5889 5893 5895 5898 5900 5901 5903 5903 5905 5906 5907 5908 5909 5910 5911 5911 5910 5909 5908 5907 5905 5903 5903 5900 5896 5894 5892 5889 5885
5721 5732 5742 5757 5773 5782 5784 5795 5810 5813 5817 5825 5830 5836 5841 5847 5853 5861 5872 5879 5881 5885 5888 5892 5894 5895 5898 5899 5901 5902 5903 5904 5905 5906 5906 5906 5906 5905 5904 5903 5901 5899 5897 5894 5890 5887 5885 5883 5879
5708 5717 5731 5750 5764 5769 5776 5794 5806 5804 5812 5821 5825 5832 5838 5842 5849 5855 5866 5876 5879 5876 5881 5884 5889 5890 5895 5898 5899 5900 5901 5902 5902 5901 5901 5901 5900 5899 5898 5896 5894 5891 5888 5887 5883 5879 5877 5874 5872
5691 5707 5725 5738 5754 5759 5770 5789 5800 5799 5806 5815 5821 5827 5832 5836 5844 5851 5859 5865 5866 5867 5867 5875 5881 5884 5887 5891 5894 5896 5897 5897 5898 5898 5896 5894 5892 5893 5891 5889 5886 5883 5881 5878 5874 5870 5867 5864 5862
5687 5704 5716 5732 5746 5756 5765 5782 5791 5793 5800 5807 5814 5821 5828 5834 5840 5847 5852 5855 5856 5862 5860 5859 5866 5871 5881 5885 5885 5888 5892 5893 5893 5894 5894 5890 5887 5884 5884 5882 5880 5878 5875 5870 5868 5864 5858 5855 5852
5674 5689 5703 5724 5735 5747 5758 5771 5782 5787 5793 5798 5808 5816 5822 5826 5833 5842 5844 5843 5843 5849 5837 5847 5852 5861 5863 5867 5875 5880 5883 5884 5885 5886 5886 5885 5882 5881 5877 5875 5873 5869 5865 5862 5859 5855 5850 5846 5841
5657 5674 5691 5709 5722 5736 5746 5761 5771 5778 5788 5793 5801 5811 5818 5823 5829 5839 5840 5840 5841 5843 5847 5850 5836 5839 5847 5859 5871 5878 5878 5878 5878 5879 5876 5874 5875 5872 5870 5868 5865 5860 5855 5852 5851 5847 5844 5840 5833
5645 5661 5682 5704 5717 5730 5738 5748 5759 5772 5782 5789 5796 5804 5812 5820 5826 5832 5834 5834 5832 5839 5846 5845 5833 5821 5855 5861 5865 5869 5871 5871 5869 5869 5866 5866 5866 5864 5862 5859 5854 5850 5846 5843 5841 5837 5835 5831 5824
5638 5661 5675 5694 5704 5715 5726 5736 5752 5765 5775 5783 5790 5801 5805 5813 5820 5824 5827 5830 5830 5835 5842 5842 5846 5849 5856 5855 5857 5861 5861 5857 5860 5861 5861 5859 5857 5854 5851 5849 5846 5840 5837 5834 5832 5828 5823 5820 5815
5643 5657 5674 5688 5696 5708 5717 5731 5750 5758 5766 5777 5787 5797 5801 5809 5817 5822 5822 5829 5829 5823 5831 5839 5838 5840 5844 5850 5851 5854 5857 5855 5857 5857 5853 5851 5849 5846 5843 5840 5838 5834 5830 5826 5822 5818 5813 5810 5806
5639 5648 5661 5674 5685 5692 5710 5723 5734 5751 5769 5776 5782 5792 5798 5802 5812 5819 5821 5823 5825 5826 5821 5826 5832 5837 5841 5845 5848 5849 5851 5851 5851 5848 5844 5840 5839 5836 5834 5832 5830 5827 5822 5817 5812 5808 5802 5797 5793
5627 5640 5651 5665 5669 5684 5707 5720 5737 5756 5763 5772 5777 5786 5792 5798 5808 5815 5818 5821 5821 5822 5824 5825 5828 5833 5836 5839 5842 5843 5843 5842 5841 5838 5835 5831 5827 5826 5825 5823 5821 5817 5811 5805 5801 5796 5791 5786 5782
5624 5634 5641 5652 5665 5686 5702 5712 5729 5751 5759 5765 5772 5780 5791 5797 5802 5810 5812 5814 5819 5820 5822 5826 5827 5829 5831 5834 5836 5836 5834 5833 5832 5829 5828 5824 5821 5819 5817 5814 5811 5805 5800 5795 5790 5784 5779 5773 5767
5623 5633 5648 5659 5681 5689 5700 5717 5724 5734 5745 5756 5766 5778 5785 5791 5796 5801 5805 5809 5811 5815 5823 5825 5825 5827 5827 5828 5829 5829 5828 5827 5825 5824 5822 5818 5814 5810 5807 5805 5801 5796 5790 5784 5778 5773 5767 5762 5758
5626 5633 5645 5658 5669 5685 5696 5706 5720 5731 5743 5753 5761 5770 5779 5785 5791 5796 5801 5803 5807 5811 5814 5820 5822 5822 5822 5823 5823 5823 5822 5820 5817 5815 5812 5808 5805 5802 5799 5795 5790 5786 5781 5776 5770 5764 5759 5755 5751
5623 5634 5649 5661 5675 5683 5693 5708 5723 5733 5741 5749 5757 5765 5775 5780 5785 5791 5797 5802 5804 5807 5810 5812 5813 5813 5813 5813 5814 5814 5815 5813 5810 5807 5804 5801 5798 5793 5790 5786 5782 5778 5774 5768 5763 5757 5753 5749 5743
5626 5632 5646 5663 5675 5684 5695 5709 5716 5729 5737 5746 5752 5763 5769 5775 5781 5788 5794 5797 5800 5802 5806 5808 5808 5808 5809 5810 5810 5810 5808 5806 5804 5801 5798 5794 5790 5787 5785 5780 5777 5773 5769 5763 5757 5753 5749 5743 5737